User: anonymous   Login
Location: Gwatt
(46.7204°N, 7.6223°E)
Time: 13:31:55
(UTC+00:00)
Language:

Lacrosse 5 rocket - Orbit

View from above orbital plane
View from above orbital plane
View from above satellite
View from above satellite

Ground track
Ground track

The orbit data is extracted from the following two-line orbital elements,

1 28647U 05016B   21135.94178511  .00000259  00000-0  32912-4 0  9994
2 28647  56.9971 327.9818 0126124  25.6132 335.1081 15.06395225110055
Epoch (UTC): 15 May 2021 22:36:10
Eccentricity: 0.0126124
inclination: 56.9971°
perigee height: 460 km
apogee height: 634 km
right ascension of ascending node: 327.9818°
argument of perigee: 25.6132°
revolutions per day: 15.06395225
mean anomaly at epoch: 335.1081°
orbit number at epoch: 11005

The dashed part of the orbit path shows where the satellite is in the earth's shadow,  

DLR